Location: Newark
(47.5833°N, 8.1500°E)
Time: 16:59:42
(UTC+00:00)

Transit 4A - All Passes

Search period start: 21 October 2020 00:00
Search period end: 31 October 2020 00:00
Orbit: 862 x 982 km, 66.8° (Epoch: 20 October)

Date Brightness Start Highest point End Pass type
(mag) Time Alt. Az. Time Alt. Az. Time Alt. Az.
21 Oct - 00:49:52 10° NW 00:56:20 85° NE 01:02:41 10° SE night (unlit)
21 Oct - 02:37:29 10° WNW 02:41:57 20° WSW 02:46:21 10° SSW night (unlit)
21 Oct - 14:19:29 10° ESE 14:20:36 10° E 14:21:43 10° E daylight
21 Oct - 15:59:32 10° SSW 16:05:38 61° ESE 16:11:56 10° NE daylight
21 Oct - 17:46:42 10° WSW 17:52:25 35° NW 17:58:16 10° NNE visible
21 Oct - 19:37:12 10° NW 19:40:51 15° NNW 19:44:31 10° NNE visible
21 Oct - 21:26:39 10° NNW 21:30:08 15° NNE 21:33:36 10° NE visible
21 Oct - 23:13:00 10° NNW 23:18:42 32° NE 23:24:20 10° E visible
22 Oct - 00:59:14 10° NW 01:05:40 71° WSW 01:11:56 10° SSE night (unlit)
22 Oct - 02:48:00 10° WNW 02:50:54 13° W 02:53:47 10° SW night (unlit)
22 Oct - 14:25:49 10° SE 14:29:31 16° ESE 14:33:16 10° ENE daylight
22 Oct - 16:08:41 10° SSW 16:14:55 83° ESE 16:21:21 10° NE daylight
22 Oct - 17:56:42 10° W 18:02:04 28° NW 18:07:32 10° NNE visible
22 Oct - 19:47:32 10° NW 19:50:47 14° N 19:54:03 10° NNE visible
22 Oct - 21:36:06 10° NNW 21:40:03 16° NNE 21:43:59 10° ENE visible
22 Oct - 23:22:16 10° NNW 23:28:19 40° NE 23:34:16 10° ESE visible
23 Oct - 01:08:42 10° NW 01:14:54 51° WSW 01:20:57 10° S night (unlit)
23 Oct - 14:33:40 10° SSE 14:38:30 24° ESE 14:43:25 10° NE daylight
23 Oct - 16:18:02 10° SW 16:24:17 73° NW 16:30:43 10° NNE daylight
23 Oct - 18:06:51 10° W 18:11:48 23° NNW 18:16:49 10° NNE visible
23 Oct - 19:57:45 10° NNW 20:00:46 13° N 20:03:47 10° NNE visible
23 Oct - 21:45:28 10° NNW 21:49:55 19° NNE 21:54:21 10° ENE visible
23 Oct - 23:31:32 10° NNW 23:37:51 53° NE 23:44:02 10° SE visible
24 Oct - 01:18:17 10° NW 01:24:03 36° WSW 01:29:43 10° S night (unlit)
24 Oct - 14:42:03 10° S 14:47:34 34° ESE 14:53:13 10° NE daylight
24 Oct - 16:27:34 10° SW 16:33:43 55° NW 16:40:02 10° NNE daylight
24 Oct - 18:17:08 10° WNW 18:21:36 19° NNW 18:26:06 10° NNE visible
24 Oct - 20:07:44 10° NNW 20:10:44 13° N 20:13:45 10° NNE visible
24 Oct - 21:54:45 10° NNW 21:59:44 23° NNE 22:04:39 10° E visible
24 Oct - 23:40:51 10° NNW 23:47:18 71° NE 23:53:36 10° SE visible
25 Oct - 01:28:02 10° NW 01:33:08 25° WSW 01:38:08 10° SSW night (unlit)
25 Oct - 14:50:46 10° S 14:56:42 49° ESE 15:02:49 10° NE daylight
25 Oct - 16:37:19 10° WSW 16:43:14 42° NW 16:49:18 10° NNE daylight
25 Oct - 18:27:30 10° WNW 18:31:27 17° NNW 18:35:27 10° NNE visible
25 Oct - 20:17:29 10° NNW 20:20:43 14° N 20:23:57 10° NE visible
25 Oct - 22:04:01 10° NNW 22:09:28 28° NE 22:14:51 10° E visible
25 Oct - 23:50:11 10° NW 23:56:39 86° WSW 00:02:59 10° SSE night (unlit)
26 Oct - 01:38:08 10° WNW 01:42:08 18° WSW 01:46:05 10° SW night (unlit)
26 Oct - 13:18:15 10° ESE 13:20:45 13° E 13:23:16 10° ENE daylight
26 Oct - 14:59:44 10° SSW 15:05:55 68° ESE 15:12:18 10° NE daylight
26 Oct - 16:47:13 10° WSW 16:52:50 33° NW 16:58:34 10° NNE visible
26 Oct - 18:37:53 10° NW 18:41:22 15° NNW 18:44:54 10° NNE visible
26 Oct - 20:27:01 10° NNW 20:30:40 15° NNE 20:34:17 10° NE visible
26 Oct - 22:13:17 10° NNW 22:19:07 35° NE 22:24:53 10° ESE visible
26 Oct - 23:59:36 10° NW 00:05:57 63° WSW 00:12:09 10° SSE night (unlit)
27 Oct - 01:49:11 10° W 01:51:03 11° W 01:52:56 10° WSW night (unlit)
27 Oct - 13:25:29 10° SSE 13:29:41 19° ESE 13:33:57 10° ENE daylight
27 Oct - 15:08:57 10° SSW 15:15:14 88° WNW 15:21:41 10° NE daylight
27 Oct - 16:57:17 10° W 17:02:31 26° NNW 17:07:50 10° NNE visible
27 Oct - 18:48:10 10° NW 18:51:20 14° N 18:54:29 10° NNE visible
27 Oct - 20:36:26 10° NNW 20:40:34 17° NNE 20:44:40 10° ENE visible
27 Oct - 22:22:33 10° NNW 22:28:42 44° NE 22:34:45 10° ESE visible
28 Oct - 00:09:06 10° NW 00:15:09 45° WSW 00:21:04 10° S night (unlit)
28 Oct - 13:33:34 10° SSE 13:38:42 28° ESE 13:43:56 10° NE daylight
28 Oct - 15:18:22 10° SW 15:24:37 66° NW 15:31:01 10° NNE daylight
28 Oct - 17:07:29 10° WNW 17:12:16 22° NNW 17:17:06 10° NNE visible
28 Oct - 18:58:19 10° NNW 19:01:18 13° N 19:04:18 10° NNE visible
28 Oct - 20:45:46 10° NNW 20:50:24 20° NNE 20:55:01 10° ENE visible
28 Oct - 22:31:50 10° NNW 22:38:12 59° NE 22:44:26 10° SE visible
29 Oct - 00:18:44 10° NW 00:24:17 32° WSW 00:29:43 10° S night (unlit)
29 Oct - 13:42:05 10° S 13:47:48 39° ESE 13:53:39 10° NE daylight
29 Oct - 15:28:00 10° WSW 15:34:05 49° NW 15:40:19 10° NNE daylight
29 Oct - 17:17:48 10° WNW 17:22:05 18° NNW 17:26:25 10° NNE visible
29 Oct - 19:08:13 10° NNW 19:11:17 14° N 19:14:21 10° NNE visible
29 Oct - 20:55:03 10° NNW 21:00:12 24° NNE 21:05:17 10° E visible
29 Oct - 22:41:10 10° NNW 22:47:37 79° NE 22:53:56 10° SE visible
30 Oct - 00:28:35 10° WNW 00:33:20 22° WSW 00:38:00 10° SSW night (unlit)
30 Oct - 13:50:54 10° SSW 13:56:58 55° ESE 14:03:12 10° NE daylight
30 Oct - 15:37:48 10° WSW 15:43:38 38° NW 15:49:35 10° NNE daylight
30 Oct - 17:28:11 10° NW 17:31:58 16° NNW 17:35:47 10° NNE visible
30 Oct - 19:17:53 10° NNW 19:21:15 14° N 19:24:36 10° NE visible
30 Oct - 21:04:19 10° NNW 21:09:54 30° NE 21:15:25 10° E visible
30 Oct - 22:50:32 10° NW 22:56:58 78° WSW 23:03:15 10° SSE visible
